FW0878 Weather Reports


Display with metric or nautical units.
time (UTC)temp
F
wind
direction
speed
MPH
gust
MPH
rain 1hr
in
rain 24hr
in
rain mn
in
humidity
%
barometer
mb
20260505050808 61 311 3.0 8.0 0.00 0.01 0.00 61 1020.6
20260505050307 61 270 2.0 8.0 0.00 0.01 0.00 61 1020.6
20260505041307 62 201 3.0 6.0 0.00 0.01 0.00 60 1020.2
20260505040307 61 203 3.0 7.0 0.00 0.01 0.00 60 1020.2
20260505035307 61 248 3.0 10.0 0.00 0.01 0.00 60 1020.2
20260505034307 62 137 3.0 9.0 0.00 0.01 0.00 58 1020.1
20260505033807 62 293 5.0 9.0 0.00 0.01 0.00 57 1020.2
20260505033308 63 247 3.0 8.0 0.00 0.01 0.00 57 1020.3
20260505032806 62 268 4.0 8.0 0.00 0.01 0.00 57 1020.0
20260505032307 62 183 3.0 9.0 0.00 0.01 0.00 57 1020.1
20260505031806 62 225 3.0 8.0 0.00 0.01 0.00 58 1020.1
20260505031307 63 289 5.0 9.0 0.00 0.01 0.00 56 1020.1
20260505030807 64 267 4.0 8.0 0.00 0.01 0.00 55 1020.1
20260505030307 64 224 3.0 7.0 0.00 0.01 0.00 54 1020.1
20260505025807 65 270 3.0 8.0 0.00 0.01 0.00 52 1019.9
20260505025308 64 224 2.0 8.0 0.00 0.01 0.00 54 1020.1
20260505024807 62 269 2.0 8.0 0.00 0.01 0.00 57 1020.0
20260505024307 62 270 3.0 8.0 0.00 0.01 0.00 57 1020.1
20260505023807 61 250 3.0 7.0 0.00 0.01 0.00 58 1020.2
20260505023307 61 224 3.0 9.0 0.00 0.01 0.00 57 1020.4
20260505022807 62 247 3.0 7.0 0.00 0.01 0.00 57 1020.3
20260505022307 63 207 5.0 9.0 0.00 0.01 0.00 55 1020.2
20260505021806 63 290 5.0 9.0 0.00 0.01 0.00 54 1020.2
20260505021307 62 205 4.0 8.0 0.00 0.01 0.00 57 1020.3
20260505020807 61 268 4.0 8.0 0.00 0.01 0.00 57 1020.4
20260505020307 62 248 4.0 10.0 0.00 0.01 0.00 57 1020.5
20260505015807 63 246 5.0 12.0 0.00 0.01 0.00 55 1020.4
20260505014308 63 268 3.0 7.0 0.00 0.01 0.00 56 1020.5
20260505013807 62 226 1.0 8.0 0.00 0.01 0.00 58 1020.7
20260505012807 61 269 5.0 12.0 0.00 0.01 0.00 59 1020.9
20260505011307 61 246 5.0 10.0 0.00 0.01 0.00 59 1021.0
20260505010808 62 291 3.0 10.0 0.00 0.01 0.00 57 1020.9
20260505010307 61 204 2.0 7.0 0.00 0.01 0.00 58 1020.8
20260505005807 60 340 3.0 9.0 0.00 0.01 0.00 58 1020.7
20260505005307 60 268 3.0 7.0 0.00 0.01 0.00 59 1020.8
20260505004308 58 292 5.0 14.0 0.00 0.01 0.00 63 1020.8
20260505003807 58 205 3.0 10.0 0.00 0.01 0.00 64 1020.9
20260505002807 58 248 4.0 9.0 0.00 0.01 0.00 65 1020.7
20260505002307 58 269 4.0 9.0 0.00 0.01 0.00 65 1020.5
20260505001807 58 204 4.0 9.0 0.00 0.01 0.00 65 1020.5
20260505001307 58 268 4.0 10.0 0.00 0.01 0.00 64 1020.5
20260505000806 58 250 4.0 9.0 0.00 0.01 0.00 65 1020.1
20260505000306 59 271 4.0 9.0 0.00 0.01 0.00 66 1020.4
20260504235808 58 71 4.0 12.0 0.00 0.01 0.00 66 1020.2
20260504234806 58 138 5.0 9.0 0.00 0.01 0.00 68 1020.1
20260504234307 58 335 3.0 9.0 0.00 0.01 0.00 69 1020.1
20260504233808 59 269 3.0 9.0 0.00 0.01 0.00 68 1020.2
20260504232807 59 293 3.0 8.0 0.00 0.01 0.00 68 1020.0
20260504232307 58 294 3.0 9.0 0.00 0.01 0.00 69 1020.0
20260504231307 58 270 5.0 8.0 0.00 0.01 0.00 70 1019.9
20260504230807 58 292 3.0 8.0 0.00 0.01 0.00 71 1019.8
20260504225307 58 228 3.0 6.0 0.01 0.01 0.01 74 1019.7
20260504224807 57 247 1.0 6.0 0.01 0.01 0.01 75 1019.6
20260504224307 57 315 2.0 6.0 0.01 0.01 0.01 76 1019.5
20260504223807 56 291 2.0 7.0 0.01 0.01 0.01 77 1019.5
20260504223307 56 226 2.0 5.0 0.00 0.00 0.00 78 1019.4
20260504222807 56 226 1.0 6.0 0.00 0.00 0.00 80 1019.4
20260504222308 55 248 2.0 6.0 0.00 0.00 0.00 81 1019.3
20260504221807 55 310 2.0 6.0 0.00 0.00 0.00 83 1019.2
20260504221308 54 291 1.0 2.0 0.00 0.00 0.00 85 1019.1
20260504220808 54 292 1.0 2.0 0.00 0.00 0.00 86 1019.0
20260504220308 53 161 1.0 2.0 0.00 0.00 0.00 87 1019.0
20260504215807 53 291 1.0 1.0 0.00 0.00 0.00 87 1019.0
20260504215307 53 291 0.0 1.0 0.00 0.00 0.00 87 1018.9
20260504214307 53 315 0.0 1.0 0.00 0.00 0.00 88 1018.8
20260504213807 53 292 0.0 1.0 0.00 0.00 0.00 87 1018.6
20260504213308 53 0 0.0 1.0 0.00 0.00 0.00 87 1018.5
20260504212807 53 251 0.0 1.0 0.00 0.00 0.00 87 1018.6
20260504212307 53 292 0.0 1.0 0.00 0.00 0.00 87 1018.5
20260504211807 53 291 1.0 2.0 0.00 0.00 0.00 87 1018.2
20260504211307 53 291 0.0 2.0 0.00 0.00 0.00 87 1018.3
20260504210807 53 269 1.0 3.0 0.00 0.00 0.00 87 1017.9
20260504210307 53 273 1.0 5.0 0.00 0.00 0.00 87 1018.0
20260504205807 53 271 1.0 5.0 0.00 0.00 0.00 88 1017.9
20260504205307 53 225 1.0 3.0 0.00 0.00 0.00 88 1017.8
20260504204807 53 249 1.0 3.0 0.00 0.00 0.00 88 1017.7
20260504203807 53 270 1.0 3.0 0.00 0.00 0.00 89 1017.6
20260504203307 53 270 1.0 3.0 0.00 0.00 0.00 89 1017.6
20260504202807 53 270 1.0 2.0 0.00 0.00 0.00 89 1017.7
20260504202307 54 317 1.0 2.0 0.00 0.00 0.00 89 1017.3
20260504201807 54 248 1.0 2.0 0.00 0.00 0.00 89 1017.2
20260504201307 54 336 1.0 2.0 0.00 0.00 0.00 89 1017.2
20260504200807 54 17 1.0 3.0 0.00 0.00 0.00 89 1017.1
20260504200307 54 337 1.0 2.0 0.00 0.00 0.00 89 1017.4
20260504195807 54 271 1.0 2.0 0.00 0.00 0.00 89 1017.1
20260504194807 54 43 1.0 2.0 0.00 0.00 0.00 89 1017.0
20260504194308 54 250 1.0 2.0 0.00 0.00 0.00 89 1016.8
20260504193807 54 270 0.0 2.0 0.00 0.00 0.00 88 1016.7
20260504193307 54 289 1.0 2.0 0.00 0.00 0.00 88 1016.8
20260504192807 54 291 0.0 1.0 0.00 0.00 0.00 88 1016.6
20260504192307 54 274 1.0 2.0 0.00 0.00 0.00 88 1016.7
20260504191806 54 337 0.0 1.0 0.00 0.00 0.00 88 1016.7
20260504191307 55 271 1.0 2.0 0.00 0.00 0.00 88 1016.5
20260504190808 55 269 1.0 3.0 0.00 0.00 0.00 88 1016.8
20260504185807 55 224 1.0 7.0 0.00 0.00 0.00 87 1016.3
20260504185308 55 292 1.0 5.0 0.00 0.00 0.00 87 1016.3
20260504184806 55 285 1.0 3.0 0.00 0.00 0.00 86 1016.4
20260504183807 55 290 1.0 3.0 0.00 0.00 0.00 84 1016.2
20260504182807 55 269 1.0 5.0 0.00 0.00 0.00 82 1015.9
20260504182307 55 250 1.0 6.0 0.00 0.00 0.00 82 1015.8
20260504181807 55 249 2.0 6.0 0.00 0.00 0.00 83 1015.9
20260504181307 55 294 1.0 6.0 0.00 0.00 0.00 82 1015.6
20260504180808 55 336 1.0 3.0 0.00 0.00 0.00 82 1015.6
20260504180307 55 289 2.0 3.0 0.00 0.00 0.00 82 1015.6
20260504175807 55 273 2.0 7.0 0.00 0.00 0.00 82 1015.5
20260504174807 55 251 1.0 3.0 0.00 0.00 0.00 82 1015.5
20260504174307 55 286 1.0 7.0 0.00 0.00 0.00 81 1015.4
20260504173807 55 313 1.0 3.0 0.00 0.00 0.00 81 1015.3
20260504173307 55 290 2.0 7.0 0.00 0.00 0.00 82 1015.4
20260504172808 55 249 1.0 3.0 0.00 0.00 0.00 82 1015.4
20260504172307 55 270 1.0 5.0 0.00 0.00 0.00 82 1015.3
20260504171806 55 314 1.0 3.0 0.00 0.00 0.00 82 1015.2
20260504171308 55 248 1.0 5.0 0.00 0.00 0.00 82 1015.3
20260504170807 55 249 1.0 3.0 0.00 0.00 0.00 82 1015.3
20260504170307 55 271 1.0 2.0 0.00 0.00 0.00 81 1015.3
20260504160308 56 297 1.0 2.0 0.00 0.00 0.00 79 1014.8
20260504150807 54 268 1.0 3.0 0.00 0.00 0.00 81 1014.6
20260504150308 54 337 1.0 2.0 0.00 0.00 0.00 80 1014.4
20260504141307 56 272 1.0 3.0 0.00 0.00 0.00 79 1014.2
20260504140807 56 311 2.0 5.0 0.00 0.00 0.00 78 1014.2
20260504140308 56 135 1.0 5.0 0.00 0.00 0.00 78 1014.0
20260504130308 58 227 1.0 3.0 0.00 0.00 0.00 75 1013.8
20260504120307 58 132 2.0 5.0 0.00 0.00 0.00 75 1013.2
20260504100307 57 357 1.0 2.0 0.00 0.00 0.00 76 1011.7
20260504081807 59 20 3.0 6.0 0.00 0.00 0.00 75 1010.1
20260504080808 59 294 3.0 7.0 0.00 0.00 0.00 75 1010.1
20260504080308 59 316 2.0 5.0 0.00 0.00 0.00 75 1010.0
20260504070307 61 1 5.0 12.0 0.00 0.00 0.00 75 1009.3